Tracking 19854 objects as of 22-Sep-2019
HD Live streaming from Space Station
objects crossing your sky now

COSMOS 1655

Track COSMOS 1655 now!
10-day predictions
COSMOS 1655 is classified as:


NORAD ID: 15751
Int'l Code: 1985-041A
Perigee: 979.9 km
Apogee: 1,021.3 km
Inclination: 82.9 °
Period: 105.0 minutes
Semi major axis: 7371 km
RCS: 1.6706 m2 (large)
Launch date: May 30, 1985
Source: Commonwealth of Independent States (former USSR) (CIS)
Launch site: PLESETSK MISSILE AND SPACE COMPLEX (PKMTR)
aabbcc
Your satellite tracking list
Your tracking list is empty




NASA's NSSDC Master Catalog

Two Line Element Set (TLE):
1 15751U 85041A   19264.57745289  .00000025  00000-0  10593-4 0  9995
2 15751  82.9459  77.8452 0028055  84.8178 337.3241 13.71706465717601
Source of the keplerian elements: AFSPC